Location: Dalkovice
(49.7337°N, 15.0044°E)
Time: 21:23:11
(UTC+00:00)

Daily predictions for brighter satellites

Satellite Brightness Start Highest point End
(mag) Time Altitude Azimuth Time Altitude Azimuth Time Altitude Azimuth
Cosmos 2322 3.7 18:26:40 10° NNW 18:32:22 81° ENE 18:38:02 10° SSE
Cosmos 1825 2.9 18:29:13 10° N 18:32:42 34° ENE 18:36:10 10° SE
Cosmos 1726 Rocket 3.6 18:28:34 10° S 18:32:52 60° E 18:37:10 10° NNE
Helios 1A Rocket 3.7 18:29:48 10° S 18:33:49 57° WSW 18:37:53 10° NNW
CZ-4C R/B 2.5 18:28:52 10° SW 18:33:55 72° NW 18:40:08 10° NE
Ariane Rocket 3.2 18:29:37 10° SE 18:34:32 54° ENE 18:39:28 10° N
Cosmos 2344 3.9 18:28:09 10° S 18:34:55 38° ESE 18:41:55 10° NE
Cosmos 1269 Rocket 4.1 18:30:57 10° SSW 18:36:16 86° ESE 18:41:37 10° NNE
Cosmos 2228 3.2 18:34:51 10° SSW 18:39:11 81° W 18:43:32 10° N
MetOp-A 4.3 18:35:58 10° S 18:41:19 79° WSW 18:46:43 10° NNW
Cosmos 1408 2.5 18:37:46 10° N 18:41:21 69° E 18:44:53 10° SSE
Cosmos 482 Debris 2.8 18:39:58 10° WSW 18:42:44 69° SSE 18:44:46 10° ENE
RESURS DK-1 3.1 18:41:48 10° S 18:45:25 30° ESE 18:49:03 10° NE
Cosmos 1300 4.5 18:43:08 10° SW 18:46:41 37° WNW 18:50:16 10° N
SL-16 R/B 4.0 18:46:57 10° N 18:51:01 19° NE 18:55:03 10° E
Cosmos 2058 3.1 18:48:17 10° N 18:52:25 54° ENE 18:56:31 10° SSE
Cosmos 1980 4.4 18:47:41 10° NNW 18:53:02 39° NE 18:57:53 12° ESE
CZ-2C R/B 3.8 18:48:52 10° N 18:53:50 47° WNW 18:58:49 10° SW
Cosmos 1992 Rocket 4.0 18:50:39 10° NNW 18:55:54 89° ENE 19:01:06 10° SSE
DMSP B5D2-2 4.5 18:51:21 10° N 18:56:34 70° WNW 19:01:48 10° SSW
Cosmos 2360 Rocket 3.7 18:52:57 10° NW 18:58:03 35° WSW 19:03:07 10° S
Cosmos 2058 Rocket 3.0 18:54:30 10° S 18:58:49 69° E 19:03:10 10° NNE
ATLAS 3B R/B 2.8 18:52:01 10° NW 18:59:02 85° NE 19:05:56 12° SE
COSMOS 2428 2.8 18:56:05 10° NNW 19:01:52 89° WSW 19:07:37 10° SSE
Cosmos 1953 Rocket 4.2 18:57:39 10° NNW 19:01:58 57° W 19:06:12 10° S
COSMOS 2487 2.3 18:59:28 10° SSW 19:02:51 88° WNW 19:06:17 10° NNE
USA 186 3.5 19:00:41 10° SSW 19:03:37 33° W 19:06:30 10° NNW
USA 215 3.4 18:58:18 11° ESE 19:04:35 75° NNE 19:11:08 10° WNW
SME Rocket 4.0 19:01:07 10° N 19:04:48 51° WNW 19:09:12 10° SW
Cosmos 1092 Rocket 4.1 18:59:07 10° N 19:05:25 82° W 19:11:37 10° S
Cosmos 2151 4.2 19:02:36 10° NNE 19:06:13 25° ENE 19:08:41 16° ESE
Cosmos 1076 Rocket 3.9 19:05:46 10° N 19:09:59 46° ENE 19:13:18 15° SE
Cosmos 1818 3.8 19:07:44 10° SSW 19:12:53 46° ESE 19:18:07 10° NE
OPS 8737 4.3 19:09:56 10° NW 19:13:00 84° NE 19:15:35 19° SE
NOSS 0 Rocket 4.0 19:07:38 10° NNW 19:13:53 73° ENE 19:19:06 15° SE
FALCON 9 DEB 3.8 19:10:47 10° SSW 19:13:55 34° SE 19:16:30 14° E
Cosmos 1812 Rocket 4.4 19:10:52 14° SE 19:14:02 31° E 19:17:58 10° NNE
ERS-2 4.1 19:10:47 10° N 19:14:05 32° WNW 19:17:21 10° SW
Cosmos 909 Rocket 4.2 19:08:39 10° S 19:14:42 49° ESE 19:20:52 10° NE
Cosmos 2219 Rocket 2.6 19:09:36 10° NW 19:15:14 63° WSW 19:20:49 10° SSE
Resurs 01 Rocket 1.7 19:12:45 12° SSE 19:16:46 67° ENE 19:21:13 10° N
Cosmos 44 3.5 19:12:19 10° SSW 19:17:19 55° ESE 19:22:34 10° NE
SL-24 R/B - RUBIN 2 4.5 19:10:44 10° SSW 19:17:19 66° SE 19:23:35 10° NE
ERS-1 Rocket 4.4 19:14:41 15° ESE 19:17:35 24° ENE 19:21:31 10° N
Cosmos 1455 2.3 19:16:25 10° SSW 19:20:09 74° W 19:23:55 10° N
ATLAS 5 CENTAUR R/B 3.9 19:21:02 10° W 19:24:37 25° NNW 19:28:39 10° NNE
Resurs 1-3 4.1 19:23:58 10° S 19:28:18 59° W 19:32:39 10° NNW
Cosmos 1633 3.2 19:25:17 10° N 19:28:41 37° ENE 19:30:05 26° ESE
Cosmos 1356 3.3 19:26:40 10° N 19:30:06 82° ENE 19:32:13 22° SSE
IGS 5A 3.4 19:27:43 18° SSE 19:30:47 76° ENE 19:34:56 10° N
Cosmos 1809 Rocket 4.5 19:26:01 10° N 19:32:07 67° ENE 19:36:59 17° SSE
ATLAS 5 CENTAUR R/B 3.1 19:31:02 10° W 19:32:13 14° SW 19:33:14 12° SSW
Lacrosse 5 rocket 3.0 19:28:35 10° WNW 19:32:23 34° N 19:36:23 10° NE
Cosmos 405 Rocket 2.8 19:30:25 10° NNW 19:34:28 85° W 19:37:21 18° S
Cosmos 2292 Rocket 4.5 19:27:45 10° N 19:35:04 78° E 19:39:37 16° SSE
BREEZE-M DEB (TANK) 4.2 19:23:27 10° W 19:39:05 88° S 19:42:11 19° E
Cosmos 1140 Rocket 4.1 19:38:38 22° SSE 19:41:02 33° ESE 19:45:36 10° NE
IRIDIUM 106 4.3 19:36:07 11° S 19:41:03 71° E 19:46:17 10° N
Cosmos 2237 Rocket 2.2 19:36:28 10° NNW 19:42:08 75° ENE 19:45:35 24° SE
SPOT 5 3.7 19:40:17 23° ESE 19:42:12 32° ENE 19:46:24 10° N
Cosmos 2279 Rocket 3.9 19:36:21 10° S 19:42:32 78° E 19:48:45 10° NNE
Exosat Rocket 4.4 19:36:09 10° NNW 19:42:41 56° WSW 19:47:11 14° S
Spot 2 Rocket 3.7 19:41:32 24° SE 19:44:23 54° ENE 19:49:21 10° N
BREEZE-M DEB (TANK) 3.8 19:40:14 10° WSW 19:44:39 60° S 19:48:45 18° ESE
BREEZE-M DEB (TANK) 4.2 19:43:02 10° WSW 19:46:37 83° SSE 19:57:30 10° E
SL-8 R/B 4.5 19:42:22 10° W 19:46:52 39° SSW 19:48:58 25° SSE
CZ-2C R/B 3.6 19:43:05 10° NNE 19:47:31 60° ESE 19:50:38 19° S
OBJECT-B 3.7 19:48:54 10° SW 19:50:44 14° W 19:52:37 10° NW
Terra 2.9 19:50:06 23° E 19:51:48 30° ENE 19:55:55 10° N
Meteor 2-14 Rocket 4.4 19:46:15 10° N 19:52:21 78° ENE 19:56:27 22° SSE
MetOp-B 4.2 19:52:09 19° S 19:56:01 80° WSW 20:01:25 10° NNW
Cosmos 2227 Rocket 2.7 19:57:04 27° SSE 19:59:17 38° ESE 20:04:29 10° NE
SPOT 1/Viking Rocket 3.5 19:58:13 25° SSE 20:01:22 90° W 20:06:38 10° NNW
Cosmos 389 Rocket 2.7 20:00:14 17° SSW 20:02:47 67° WNW 20:06:21 10° N
Cosmos 2251 Rocket 4.0 19:57:51 10° SW 20:03:10 65° WNW 20:08:31 10° NNE
Cosmos 2333 Rocket 4.1 20:00:35 10° NW 20:05:06 24° WSW 20:09:34 10° SSW
Cosmos 2266 Rocket 4.0 19:59:41 10° N 20:06:08 77° E 20:09:47 27° SSE
Cosmos 2297 Rocket 2.3 20:02:13 16° S 20:06:36 53° ESE 20:12:07 10° NE
SPOT 3 Rocket 4.3 20:03:45 14° S 20:08:00 49° W 20:13:03 10° NNW
BREEZE-M DEB (TANK) 2.7 20:06:39 10° W 20:08:16 35° WSW 20:08:16 35° WSW
Cosmos 2219 3.3 20:05:52 22° S 20:09:16 51° ESE 20:14:42 10° NE
Cosmos 1190 Rocket 4.1 20:07:39 31° SSE 20:09:51 50° ESE 20:14:54 10° NNE
ATLAS 2AS CENTAUR R/B 3.7 20:02:55 10° WSW 20:10:42 57° NW 20:18:17 10° NE
ARIANE 5 R/B 2.5 20:09:20 38° SSE 20:11:00 85° ENE 20:15:25 10° NNW
Meteor 2-21 Rocket 4.3 20:06:54 10° N 20:12:59 86° E 20:16:20 29° SSE
Timation 2 Rocket 4.1 20:10:14 17° S 20:15:10 52° ESE 20:21:17 10° NE
H-2A R/B 4.4 20:13:55 10° NNE 20:17:13 31° E 20:17:13 31° E
Orbus 7S? 4.2 20:18:00 10° WSW 20:21:16 61° NNW 20:28:09 10° ENE
Cosmos 1763 Rocket 4.3 20:16:49 10° N 20:21:31 37° ENE 20:22:57 31° E
RESURS DK-1 4.1 20:19:34 10° WSW 20:23:23 35° NW 20:27:12 10° NNE
CZ-4C R/B 4.3 20:18:43 10° WNW 20:23:33 28° NNW 20:29:16 10° NE
Genesis I 3.1 20:20:49 10° NW 20:24:50 90° NW 20:25:22 66° SE
USA 245 3.9 20:24:37 35° SSW 20:25:52 49° WSW 20:29:10 10° NNW
Meteor 2-16 Rocket 4.4 20:20:15 10° N 20:26:27 89° W 20:29:25 33° S
Cosmos-2242 2.9 20:25:50 41° S 20:27:18 88° W 20:31:39 10° N
Cosmos 676 Rocket 4.3 20:26:56 42° ESE 20:27:19 43° ESE 20:32:12 10° NE
Cosmos 1408 Rocket 4.2 20:24:47 10° N 20:28:50 37° ENE 20:29:01 37° E
JB-3 4.3 20:26:34 10° NNE 20:30:43 73° ESE 20:31:09 65° SSE
Cosmos 1655 Rocket 4.4 20:27:42 10° NNW 20:33:55 61° W 20:37:46 24° SSW
SL-16 R/B 2.2 20:30:27 10° NNW 20:36:11 73° ENE 20:37:53 46° SE
NOSS 3-1 (C) 4.4 20:29:43 10° NW 20:36:43 56° NE 20:41:19 27° ESE
Cosmos 2151 4.2 20:39:38 10° NNW 20:43:37 36° W 20:45:17 26° SW
Meteor 2-3 Rocket 4.2 20:40:08 10° NNW 20:45:47 56° W 20:48:26 30° SSW
USA 215 3.7 20:45:38 34° S 20:47:52 46° SW 20:54:08 10° WNW
Cosmos 2344 4.1 20:41:35 10° WSW 20:48:53 59° NW 20:57:10 10° NE
ATLAS 3B R/B 4.3 20:43:26 10° WNW 20:49:06 27° WSW 20:53:13 16° SSW
Meteor 1-27 4.2 20:47:48 35° SSW 20:50:23 85° WNW 20:56:15 10° NNE
FALCON 9 DEB 4.1 20:47:16 10° W 20:49:45 42° W 20:49:45 42° W
Cosmos 2221 3.4 20:53:18 35° ENE 20:53:18 35° ENE 20:56:24 10° NNE
Resurs 01 Rocket 4.2 20:50:59 10° SW 20:53:43 16° W 20:56:29 10° NW
Cosmos 1553 Rocket 4.3 20:54:34 41° ESE 20:55:13 42° E 21:00:55 10° NNE
ERS-1 Rocket 3.3 20:54:40 43° SSW 20:56:01 59° WSW 21:01:00 10° NNW
Cosmos 407 Rocket 4.1 20:53:35 12° SW 20:58:10 55° WNW 21:03:17 10° NNE
Okean 3 Rocket 3.9 20:54:13 10° NNW 20:58:42 61° W 20:59:21 54° SW
Cosmos 1766 Rocket 3.9 20:58:49 10° NNW 21:03:03 54° W 21:03:29 51° WSW
Cosmos 1500 Rocket 4.1 20:59:40 10° N 21:03:43 46° ENE 21:03:43 46° ENE
Cosmos 1943 4.1 21:00:29 10° NNW 21:05:43 37° NE 21:07:11 32° E
Meteor 1-4 Rocket 3.5 21:10:11 44° NNW 21:10:11 44° NNW 21:12:48 10° N
Meteor 2-15 4.3 21:09:37 53° S 21:11:12 86° E 21:17:17 10° N
Lacrosse 5 rocket 2.9 21:08:26 10° NW 21:12:23 34° NNE 21:14:11 24° NE
ALOS 2 4.3 21:12:33 22° ENE 21:12:33 22° ENE 21:15:50 10° NNE
Cosmos 1954 Rocket 3.9 21:12:16 56° SW 21:13:23 81° WNW 21:18:36 10° NNE
Meteor 2-2 Rocket 4.1 21:18:00 66° SSE 21:18:43 75° E 21:24:26 10° NNE
Cosmos 1869 4.1 21:18:39 45° W 21:18:47 45° WNW 21:22:37 10° N
COSMOS 2455 2.7 21:18:15 62° S 21:19:05 72° ESE 21:25:07 10° NE
SPOT 5 3.8 21:19:30 33° WSW 21:20:14 35° W 21:24:34 10° NNW
Cosmos 2237 Rocket 4.0 21:21:33 10° NW 21:25:35 20° W 21:27:26 17° SW
SeaSat 1 3.1 21:21:01 10° NE 21:24:38 41° ENE 21:24:38 41° ENE
Terra 2.6 21:28:59 39° WSW 21:29:25 40° W 21:33:57 10° NNW
Cosmos 1606 4.5 21:34:03 25° NNE 21:34:03 25° NNE 21:35:52 10° NNE
Timation 1 Rocket 4.3 21:33:37 50° SW 21:35:15 82° WNW 21:41:17 10° NNE
Cosmos 2082 3.7 21:39:13 57° SW 21:40:20 76° WNW 21:46:00 10° NNE
Cosmos 2263 Rocket 3.0 21:42:46 36° ENE 21:42:46 36° ENE 21:46:40 10° NE
Cosmos 2227 Rocket 3.2 21:38:45 14° WSW 21:43:18 44° NW 21:48:43 10° NNE
Cosmos 468 Rocket 4.4 21:38:49 10° NNW 21:43:44 51° WSW 21:43:44 51° WSW
USA 229 DEB 3.9 21:36:42 10° NW 21:43:58 78° NE 21:46:08 51° ESE
USA 229 3.9 21:36:47 10° NW 21:44:03 78° NE 21:46:14 50° ESE
USA 281 4.4 21:46:12 23° E 21:49:11 33° NE 21:54:57 10° NNW
Cosmos 1842 Rocket 4.2 21:49:34 53° NW 21:49:34 53° NW 21:53:37 10° N
Cosmos 1603 3.6 21:44:34 10° NNW 21:50:20 74° ENE 21:50:37 73° E
Cosmos 2297 Rocket 3.7 21:45:51 10° WSW 21:50:56 33° NW 21:56:03 10° NNE
Cosmos 841 Rocket 3.4 21:46:30 10° NNW 21:51:30 81° NNW 21:51:30 81° NNW
Cosmos 1745 Rocket 3.9 21:49:29 10° N 21:55:51 83° W 21:56:33 72° SSW
Cosmos 1814 Rocket 4.0 21:54:17 10° NNW 21:59:24 76° NNE 21:59:24 76° NNE
Cosmos 1709 Rocket 3.9 21:55:25 10° N 22:01:40 68° ENE 22:02:05 66° ESE
NOSS 3-1 (A) 4.0 21:54:27 10° NW 22:01:49 87° NE 22:04:04 54° SE
Cosmos 921 Rocket 3.8 21:58:24 10° NNW 22:01:48 51° NNW 22:01:48 51° NNW
Cosmos 1763 Rocket 4.4 21:58:43 10° NW 22:02:58 36° W 22:02:58 36° W
Meteor 1-25 Rocket 4.2 22:02:05 10° N 22:07:48 74° ENE 22:07:50 74° E
S3M 3.9 22:08:54 71° SSW 22:09:38 83° W 22:16:05 10° N
Spot 4 4.2 22:11:46 61° NW 22:11:46 61° NW 22:15:59 10° NNW
Cosmos 1805 Rocket 4.5 22:07:58 10° NNW 22:11:11 46° NW 22:11:11 46° NW
Cosmos 883 Rocket 4.4 22:14:36 73° ESE 22:14:46 74° E 22:21:03 10° NNE
SL-16 R/B 3.9 22:15:31 10° NW 22:19:42 21° W 22:19:46 21° WSW
Sich 1 4.1 22:17:57 10° NNW 22:20:54 42° NNW 22:20:54 42° NNW
Cosmos 540 Rocket 4.3 22:17:58 10° NW 22:22:04 42° W 22:22:04 42° W
NOSS 3-1 (C) 4.3 22:20:36 10° NW 22:27:51 54° WSW 22:28:42 52° SW
Meteor 1-20 Rocket 4.3 22:23:39 10° NNW 22:29:20 74° W 22:29:20 74° W
Cosmos 1570 Rocket 4.5 22:24:53 10° NNW 22:29:20 54° WNW 22:29:20 54° WNW
Cosmos 2221 4.4 22:30:07 23° WNW 22:30:07 23° WNW 22:33:33 10° NNW
Cosmos 2227 4.2 22:34:45 82° NNE 22:34:45 82° NNE 22:40:16 10° NNE
Cosmos 1633 Rocket 4.1 22:31:38 10° N 22:34:39 44° N 22:34:39 44° N
Nimbus 7 Rocket 4.5 22:31:24 10° NNE 22:36:58 65° E 22:36:58 65° E
Cosmos 44 Rocket 4.3 22:36:36 41° WNW 22:37:35 46° NW 22:42:38 10° NNE
Aureole 1 Rocket 4.1 22:38:07 52° WNW 22:38:25 53° WNW 22:43:03 10° NNE
ALOS 2 3.9 22:49:56 36° NW 22:49:56 36° NW 22:52:48 10° NNW
Cosmos 1943 3.9 22:44:32 10° NW 22:48:59 42° W 22:48:59 42° W
Lacrosse 5 rocket 3.1 22:47:37 10° NW 22:49:48 29° NW 22:49:48 29° NW
Cosmos 1782 4.4 22:54:23 33° N 22:54:23 33° N 22:56:43 10° N
ATLAS 5 CENTAUR R/B 4.0 22:52:46 10° NNW 22:57:10 27° NNE 23:02:12 10° E
Thor Agena Rocket 3.8 22:54:15 10° NNE 22:58:37 65° NNE 22:58:37 65° NNE
Cosmos 2154 Rocket 4.4 22:54:06 10° N 23:00:18 52° ENE 23:01:07 49° E
SeaSat 1 3.9 22:58:50 10° NNE 23:03:12 32° NW 23:04:24 28° WNW
COSMOS 2455 4.4 23:01:18 15° W 23:05:34 32° NW 23:10:57 10° NNE
Cosmos 2315 Rocket 4.3 23:10:31 55° W 23:11:06 57° WNW 23:17:23 10° N
Iridium 4 Rocket 4.1 23:11:57 50° NW 23:11:57 50° NW 23:16:24 10° N
Cosmos 2184 Rocket 3.9 23:05:54 10° N 23:12:17 85° ENE 23:12:34 82° SE
Cosmos 1151 Rocket 4.4 23:21:43 36° NNW 23:21:43 36° NNW 23:24:41 10° N
Meteor 2-12 Rocket 4.4 23:15:29 10° N 23:21:38 73° ENE 23:21:57 71° ESE
Cosmos 968 Rocket 3.7 23:24:12 70° N 23:24:12 70° N 23:28:55 10° NNE
Cosmos 2263 Rocket 3.1 23:24:25 36° WNW 23:25:26 39° NW 23:30:40 10° NNE
USA 281 3.1 23:33:03 69° SW 23:33:17 69° WSW 23:39:54 10° NNW
NOSS 2-2 (D) 4.2 23:30:53 10° NW 23:36:03 83° WSW 23:36:03 83° WSW
Cosmos 1844 Rocket 2.7 23:39:31 71° ENE 23:39:31 71° ENE 23:44:42 10° NNE
SL-4 R/B 3.6 23:41:44 36° ENE 23:41:44 36° ENE 23:44:39 10° E
Cosmos 1486 Rocket 4.1 23:40:25 71° NNW 23:40:25 71° NNW 23:45:25 10° NNE
Cosmos 1295 Rocket 4.4 23:35:33 10° N 23:41:50 83° E 23:42:22 75° SE
Cosmos 2074 Rocket 4.1 23:37:09 10° NNW 23:43:17 58° W 23:43:22 58° W
Helios 1A 4.0 23:45:17 45° N 23:45:17 45° N 23:48:18 10° NNW
EO 1 Delta rocket 4.3 23:45:11 54° ENE 23:45:11 54° ENE 23:49:28 10° N
Cosmos 1869 Rocket 4.4 23:41:02 10° N 23:44:17 48° N 23:44:17 48° N
Meteor 2-6 Rocket 4.2 23:48:13 71° NW 23:48:13 71° NW 23:53:22 10° N
Cosmos 2082 Rocket 4.2 23:45:15 10° NNW 23:49:55 26° NE 23:54:33 10° E
Cosmos 1271 Rocket 4.2 23:53:58 36° NNE 23:53:58 36° NNE 23:56:25 10° NNE
USA 307 4.4 23:55:48 32° ENE 23:55:48 32° ENE 23:58:10 10° ENE
SJ 16-02 3.4 23:56:01 19° E 23:56:01 19° E 23:58:44 10° NE
